www.pogodaiklimat.ru

Погода и климат >> Архив погоды >> Австралия >> Южная Австралия >> Мумба


ПОГОДА в Мумбе

  • Прогноз погоды в Мумбе
  • Монитор погоды в Мумбе

АРХИВ ПОГОДЫ в Мумбе

Время (UTC), дата Ветер
(напр.,м/с)
 
Видим.   Явления Облачность Т
(С)
Тd
(С)
f
(%)
Тe
(С)
Тes
(С)
Комфортность P
(гПа)
Po
(гПа)
Тmin
(С)
Tmax
(С)
R
(мм)
R24
(мм)
S
(см)
19 15.09 СВ 3 н/о н/о +15.7 -9.2 17 +15 +15 1016.5 1012.0
20 15.09 СВ 4 н/о н/о +14.6 -9.4 18 +14 +14 1016.8 1012.3
21 15.09 СВ 5 н/о н/о +14.1 -9.8 18 +13 +13 1017.0 1012.5
22 15.09 С 4 н/о н/о +18.0 -9.0 15 +18 +18 1017.5 1013.0
23 15.09 С 4 н/о н/о +23.1 -10.1 10 +21 +21 комфорт 1017.8 1013.3
00 16.09 С 5 н/о н/о +27.9 -7.9 9 +24 +24 комфорт 1017.6 1013.1
01 16.09 С 5 н/о н/о +31.2 -8.6 7 +27 +27 жарко 1017.1 1012.6
02 16.09 СЗ 6 н/о н/о +32.5 -7.7 7 +28 +28 жарко 1016.7 1012.2 +13.9
03 16.09 СЗ 6 н/о н/о +33.5 -7.0 7 +29 +29 жарко 1015.8 1011.3
04 16.09 З 6 н/о н/о +34.0 -6.6 7 +30 +30 жарко 1015.0 1010.5
05 16.09 З 6 н/о н/о +34.3 -6.4 7 +30 +30 жарко 1014.4 1009.9
06 16.09 З 6 н/о н/о +34.7 -6.1 7 +30 +30 жарко 1013.8 1009.3
07 16.09 З 7 н/о н/о +33.6 -6.9 7 +29 +29 жарко 1013.8 1009.3
08 16.09 З 5 н/о н/о +32.5 -6.0 8 +28 +28 жарко 1013.9 1009.4
09 16.09 З 3 н/о н/о +28.5 -6.0 10 +25 +25 комфорт 1014.3 1009.8
10 16.09 З 3 н/о н/о +26.8 -6.1 11 +24 +24 комфорт 1014.6 1010.1
11 16.09 Ю 9 1500 м 10/10 300 м
[]
+24.4 +6.2 31 +24 +24 комфорт 1016.1 1011.6
12 16.09 Ю 7 н/о н/о +22.0 +5.0 33 +22 +22 комфорт 1016.9 1012.4
13 16.09 Ю 9 н/о н/о +20.8 +5.2 36 +21 +21 комфорт 1017.5 1013.0
14 16.09 Ю 9 2000 м н/о +19.6 +4.1 36 +19 +19 1018.2 1013.7 +34.8
15 16.09 Ю 11 н/о н/о +17.8 +4.4 41 +16 +16 1018.7 1014.2
16 16.09 Ю 10 н/о н/о +15.6 +4.6 48 +14 +14 1019.1 1014.6
17 16.09 Ю 9 3000 м н/о +14.7 +4.1 49 +13 +13 1019.1 1014.6
18 16.09 Ю 10 н/о н/о +13.2 +3.6 52 +10 +10 1019.3 1014.8
19 16.09 Ю 9 н/о н/о +12.0 +3.3 55 +9 +9 1020.0 1015.5
20 16.09 Ю 10 5000 м н/о +11.3 +3.1 57 +8 +8 1020.9 1016.4
21 16.09 ЮВ 9 н/о н/о +11.0 +3.5 60 +7 +7 1021.9 1017.3
22 16.09 ЮВ 10 н/о н/о +12.0 +3.5 56 +9 +9 1022.8 1018.2
23 16.09 ЮВ 10 6000 м 9/9 300 м
[]
+13.0 +2.6 49 +10 +10 1023.4 1018.8
00 17.09 ЮВ 9 н/о н/о +14.7 +1.6 41 +13 +13 1023.7 1019.1
01 17.09 ЮВ 9 н/о н/о +16.6 -0.1 32 +15 +15 1023.8 1019.2
02 17.09 ЮВ 8 7000 м 4/4 600 м
[]
+18.1 -2.8 24 +17 +17 1023.2 1018.6 +11.0
03 17.09 ЮВ 7 н/о н/о +20.0 -4.3 19 +19 +19 1022.6 1018.0
04 17.09 ЮВ 7 н/о н/о +20.2 -6.4 16 +19 +19 1022.2 1017.6
05 17.09 ЮВ 7 н/о н/о +20.8 -6.7 15 +20 +20 1021.7 1017.1
06 17.09 ЮВ 7 н/о н/о +20.6 -7.8 14 +20 +20 1021.3 1016.8
07 17.09 ЮВ 7 н/о н/о +20.5 -8.8 13 +20 +20 1021.6 1017.0
08 17.09 ЮВ 6 н/о н/о +19.8 -8.4 14 +19 +19 1022.2 1017.6
09 17.09 ЮВ 4 н/о н/о +18.1 -8.9 15 +18 +18 1022.9 1018.3
10 17.09 Ю 4 н/о н/о +16.4 -9.4 16 +16 +16 1023.7 1019.1
11 17.09 Ю 4 н/о н/о +14.7 -9.3 18 +14 +14 1023.9 1019.3
12 17.09 Ю 4 н/о н/о +13.1 -10.0 19 +12 +12 1024.7 1020.1
13 17.09 Ю 4 н/о н/о +11.7 -11.1 19 +10 +10 1024.7 1020.1
14 17.09 Ю 5 н/о н/о +11.7 -11.1 19 +10 +10 1024.8 1020.2 +22.1
15 17.09 Ю 4 н/о н/о +8.7 -11.2 23 +7 +7 1024.6 1020.0
16 17.09 Ю 4 н/о н/о +9.2 -11.4 22 +7 +7 1024.1 1019.5
17 17.09 ЮВ 6 н/о н/о +10.4 -10.4 22 +8 +8 1023.8 1019.2
18 17.09 ЮВ 5 н/о н/о +9.7 -9.9 24 +7 +7 1023.9 1019.3
19 17.09 ЮВ 5 н/о н/о +8.2 -10.1 26 +6 +6 1023.9 1019.3
20 17.09 ЮВ 4 н/о н/о +6.4 -9.9 30 +4 +4 1024.6 1020.0
21 17.09 В 5 н/о н/о +6.8 -9.1 31 +4 +4 1024.6 1020.0
22 17.09 В 6 н/о н/о +11.0 -5.0 32 +9 +9 1025.1 1020.5
23 17.09 В 8 н/о н/о +14.3 -0.9 35 +12 +12 1025.4 1020.8
00 18.09 В 8 н/о н/о +16.6 +1.5 36 +15 +15 1025.3 1020.7
01 18.09 В 6 н/о н/о +17.8 +0.9 32 +17 +17 1024.3 1019.7
02 18.09 СВ 7 н/о н/о +18.9 0.0 28 +18 +18 1023.4 1018.8 +6.3
03 18.09 В 3 н/о н/о +20.7 -1.8 22 +21 +21 комфорт 1022.4 1017.8
04 18.09 В 3 н/о н/о +21.8 -2.8 19 +21 +21 комфорт 1021.6 1017.0
05 18.09 В 2 н/о н/о +22.6 -5.3 15 +21 +21 комфорт 1021.0 1016.5
06 18.09 ЮВ 3 н/о н/о +23.3 -5.7 14 +21 +21 комфорт 1020.7 1016.2
07 18.09 ЮВ 4 н/о н/о +23.2 -6.7 13 +21 +21 комфорт 1020.7 1016.2
08 18.09 ЮВ 3 н/о н/о +22.8 -6.1 14 +21 +21 комфорт 1020.5 1016.0
09 18.09 ЮВ 3 н/о н/о +20.9 -6.7 15 +21 +21 комфорт 1020.5 1016.0
10 18.09 ЮВ 3 н/о н/о +18.9 -5.9 18 +19 +19 1020.8 1016.3
11 18.09 В 3 н/о н/о +15.9 -7.0 20 +16 +16 1020.9 1016.4
12 18.09 В 3 н/о н/о +14.0 -7.9 21 +14 +14 1020.9 1016.4
13 18.09 ЮВ 2 н/о н/о +13.9 -6.3 24 +14 +14 1020.8 1016.3
14 18.09 В 2 н/о н/о +12.3 -7.7 24 +12 +12 1020.6 1016.1 +23.9
15 18.09 В 4 н/о н/о +11.2 -8.1 25 +10 +10 1020.1 1015.6
16 18.09 СВ 3 н/о н/о +11.6 -7.2 26 +11 +11 1020.4 1015.9
17 18.09 СВ 4 н/о н/о +10.8 -6.5 29 +9 +9 1019.3 1014.8
18 18.09 СВ 4 н/о н/о +10.5 -5.1 33 +9 +9 1018.9 1014.4
19 18.09 СВ 3 н/о н/о +11.1 -4.1 34 +10 +10 1018.9 1014.4
20 18.09 СВ 4 н/о н/о +10.0 -4.4 36 +8 +8 1019.2 1014.7
21 18.09 СВ 5 н/о н/о +11.7 -2.9 36 +10 +10 1019.1 1014.6
22 18.09 СВ 7 н/о н/о +15.9 -0.8 32 +15 +15 1019.3 1014.8
23 18.09 СВ 8 н/о н/о +19.5 -0.5 26 +19 +19 1019.4 1014.9
00 19.09 СВ 10 н/о н/о +23.7 +0.7 22 +23 +23 комфорт 1018.9 1014.4
01 19.09 СВ 8 н/о н/о +26.5 -0.5 17 +24 +24 комфорт 1018.2 1013.7
02 19.09 С 8 н/о н/о +28.2 -3.9 12 +25 +25 комфорт 1017.1 1012.6 +9.8
03 19.09 С 7 н/о н/о +29.4 -6.7 9 +26 +26 жарко 1016.5 1012.0
04 19.09 С 5 н/о н/о +30.7 -7.3 8 +27 +27 жарко 1015.6 1011.1
05 19.09 С 5 н/о н/о +30.6 -9.1 7 +27 +27 жарко 1014.4 1009.9
06 19.09 С 5 н/о н/о +31.4 -8.5 7 +27 +27 жарко 1013.7 1009.2
07 19.09 С 5 н/о н/о +31.2 -8.6 7 +27 +27 жарко 1013.3 1008.8
08 19.09 С 4 н/о н/о +30.3 -9.3 7 +26 +26 жарко 1013.5 1009.0
09 19.09 С 3 н/о н/о +26.6 -10.3 8 +23 +23 комфорт 1013.8 1009.3
10 19.09 СВ 3 н/о н/о +24.5 -10.4 9 +22 +22 комфорт 1013.9 1009.4
11 19.09 СВ 4 н/о н/о +22.0 -11.0 10 +20 +20 1014.3 1009.8
12 19.09 СВ 5 н/о н/о +21.6 -10.1 11 +20 +20 1014.3 1009.8
13 19.09 СВ 3 н/о н/о +19.8 -9.4 13 +20 +20 1014.4 1009.9
14 19.09 СВ 4 н/о н/о +20.0 -7.4 15 +20 +20 1014.3 1009.8 +31.9
15 19.09 СВ 4 н/о н/о +19.5 -7.8 15 +19 +19 1013.8 1009.3
16 19.09 СВ 3 н/о н/о +17.6 -8.5 16 +18 +18 1013.5 1009.0
17 19.09 СВ 3 н/о н/о +16.3 -8.0 18 +16 +16 1012.9 1008.4
18 19.09 СВ 4 н/о н/о +14.8 -8.6 19 +14 +14 1012.6 1008.1
19 19.09 СВ 6 н/о н/о +15.6 -7.9 19 +15 +15 1012.6 1008.1
20 19.09 СВ 5 н/о н/о +15.1 -7.7 20 +14 +14 1012.8 1008.3
21 19.09 СВ 4 н/о н/о +15.8 -7.1 20 +15 +15 1012.8 1008.3
22 19.09 СВ 6 н/о н/о +19.4 -6.2 17 +19 +19 1013.0 1008.5
23 19.09 СВ 8 н/о н/о +23.2 -5.7 14 +21 +21 комфорт 1012.7 1008.2
00 20.09 С 9 н/о н/о +29.0 -8.5 8 +25 +25 комфорт 1012.3 1007.8
01 20.09 С 11 н/о н/о +31.1 -10.7 6 +27 +27 жарко 1011.4 1006.9
02 20.09 С 11 н/о н/о +33.1 -11.5 5 +29 +29 жарко 1010.5 1006.0 +14.9
03 20.09 С 10 н/о н/о +34.0 -13.7 4 +29 +29 жарко 1009.8 1005.3
04 20.09 С 10 н/о н/о +33.7 -11.1 5 +29 +29 жарко 1008.6 1004.1
05 20.09 С 11 н/о н/о +34.1 -10.8 5 +30 +30 жарко 1008.1 1003.6
06 20.09 С 11 н/о н/о +33.9 -11.0 5 +29 +29 жарко 1007.2 1002.7
07 20.09 С 10 н/о н/о +33.6 -13.9 4 +29 +29 жарко 1007.2 1002.7
08 20.09 С 7 н/о н/о +32.6 -11.9 5 +28 +28 жарко 1007.3 1002.8
09 20.09 С 5 н/о н/о +28.0 -12.9 6 +24 +24 комфорт 1007.3 1002.8
10 20.09 З 2 н/о н/о +28.0 -7.8 9 +25 +25 комфорт 1008.1 1003.6
11 20.09 З 7 1000 м н/о +26.1 +0.7 19 +24 +24 комфорт 1009.6 1005.1
12 20.09 ЮЗ 12 н/о н/о +19.7 +8.4 48 +20 +20 1011.5 1007.0
13 20.09 ЮЗ 10 н/о н/о +18.5 +8.7 53 +18 +18 1012.1 1007.6
14 20.09 ЮЗ 11 3000 м н/о +17.8 +8.1 53 +16 +16 1012.8 1008.3 +35.0
15 20.09 ЮЗ 9 н/о н/о +16.7 +7.6 55 +15 +15 1014.1 1009.6
16 20.09 ЮЗ 11 н/о н/о +15.1 +8.3 64 +13 +13 1014.5 1010.0
17 20.09 ЮЗ 10 н/о н/о +12.8 +9.6 81 +9 +9 1016.2 1011.7
18 20.09 ЮЗ 9 н/о н/о +11.9 +10.3 90 +8 +8 1016.0 1011.5
19 20.09 З 8 н/о н/о +11.8 +9.9 88 +8 +8 1017.0 1012.5
20 20.09 ЮЗ 6 н/о н/о +11.5 +8.2 80 +9 +9 1017.8 1013.3
21 20.09 ЮЗ 6 н/о н/о +11.3 +7.6 78 +8 +8 1019.5 1015.0
22 20.09 ЮЗ 5 н/о н/о +11.3 +8.2 81 +9 +9 1021.2 1016.7
23 20.09 З 4 н/о н/о +11.7 +7.8 77 +10 +10 1022.2 1017.6
00 21.09 ЮЗ 4 н/о н/о +12.5 +7.4 71 +11 +11 1021.6 1017.0
01 21.09 ЮЗ 5 н/о н/о +13.9 +6.5 61 +12 +12 1022.6 1018.0
02 21.09 ЮЗ 8 н/о н/о +15.1 +5.3 52 +13 +13 1022.0 1017.4 +11.2
03 21.09 ЮЗ 7 н/о н/о +14.7 +6.3 57 +13 +13 1021.7 1017.1
04 21.09 ЮЗ 7 н/о н/о +17.2 +3.1 39 +16 +16 1021.2 1016.7
05 21.09 ЮЗ 7 н/о н/о +19.1 -0.8 26 +19 +19 1021.0 1016.5
06 21.09 ЮЗ 6 н/о н/о +19.3 -0.7 26 +19 +19 1020.4 1015.9
07 21.09 ЮЗ 6 н/о н/о +19.1 -0.3 27 +19 +19 1020.7 1016.2
08 21.09 ЮЗ 6 н/о н/о +18.8 -0.1 28 +18 +18 1021.0 1016.5
09 21.09 ЮЗ 5 н/о н/о +17.0 +0.2 32 +16 +16 1021.9 1017.3
10 21.09 ЮЗ 5 н/о н/о +15.0 -0.7 34 +14 +14 1022.5 1017.9
11 21.09 ЮЗ 4 н/о н/о +13.1 -0.5 39 +12 +12 1023.0 1018.4
12 21.09 ЮЗ 3 н/о н/о +12.1 -0.7 41 +11 +11 1023.4 1018.8
13 21.09 ЮЗ 1 н/о н/о +10.7 -0.7 45 +11 +11 1023.6 1019.0
14 21.09 ЮЗ 2 н/о н/о +9.1 -1.6 47 +8 +8 1023.8 1019.2 +20.5
15 21.09 ЮЗ 2 н/о н/о +8.7 -1.7 48 +8 +8 1023.9 1019.3
16 21.09 ЮЗ 3 н/о н/о +8.6 -0.7 52 +6 +6 1023.8 1019.2
17 21.09 ЮЗ 3 н/о н/о +7.9 -0.6 55 +6 +6 1023.8 1019.2
18 21.09 ЮЗ 2 н/о н/о +7.2 -1.0 56 +5 +5 1024.1 1019.5
19 21.09 ЮЗ 1 н/о н/о +6.3 -1.1 59 +7 +7 1024.8 1020.2
20 21.09 ЮЗ 2 н/о н/о +6.1 -1.1 60 +4 +4 1025.5 1020.9
21 21.09 ЮЗ 2 н/о н/о +6.2 -1.4 58 +4 +4 1026.5 1021.9
22 21.09 Ю 2 н/о н/о +10.3 +0.1 49 +9 +9 1027.3 1022.7
23 21.09 Ю 4 н/о н/о +14.5 +1.1 40 +13 +13 1027.9 1023.3
00 22.09 Ю 5 н/о н/о +17.4 +1.4 34 +17 +17 1028.1 1023.5
01 22.09 Ю 4 н/о н/о +18.7 -0.2 28 +19 +19 1028.0 1023.4
02 22.09 ЮЗ 3 н/о н/о +19.4 -1.1 25 +20 +20 1027.6 1023.0 +5.8
03 22.09 З 4 н/о н/о +19.9 -1.2 24 +20 +20 1026.9 1022.3
04 22.09 З 3 н/о н/о +20.9 -2.2 21 +21 +21 комфорт 1026.1 1021.5
05 22.09 Ю 3 н/о н/о +20.7 -3.0 20 +21 +21 комфорт 1025.5 1020.9
06 22.09 Ю 3 н/о н/о +21.0 -2.8 20 +21 +21 комфорт 1025.1 1020.5
07 22.09 ЮЗ 4 н/о н/о +21.4 -1.8 21 +21 +21 комфорт 1025.3 1020.7
08 22.09 ЮЗ 5 н/о н/о +20.4 -0.8 24 +20 +20 1025.6 1021.0
09 22.09 ЮЗ 4 н/о н/о +18.7 -1.2 26 +19 +19 1026.2 1021.6
10 22.09 ЮЗ 4 н/о н/о +17.0 -1.6 28 +17 +17 1027.0 1022.4
11 22.09 Ю 2 н/о н/о +15.2 -2.2 30 +16 +16 1027.7 1023.1
12 22.09 Ю 2 н/о н/о +14.0 -2.0 33 +14 +14 1027.8 1023.2
13 22.09 З 2 н/о н/о +13.5 -2.8 32 +14 +14 1028.1 1023.5
14 22.09 З 2 н/о н/о +12.2 -2.8 35 +12 +12 1028.1 1023.5 +22.0
15 22.09 Ю 2 н/о н/о +10.3 -4.5 35 +9 +9 1028.1 1023.5
16 22.09 Ю 3 н/о н/о +10.9 -3.2 37 +10 +10 1027.9 1023.3
17 22.09 Ю 1 н/о н/о +9.0 -5.6 35 +10 +10 1027.8 1023.2
18 22.09 штиль 0 н/о н/о +9.0 -4.2 39 +9 +9 1027.5 1022.9

 

Местоположение метеостанции Мумба (Южная Австралия, Австралия): широта -28.10 долгота 140.20 высота над уровнем моря 38 м.

В архиве по умолчанию представлена погода в Мумбе за последнюю неделю. Архивные данные за месяц целиком и за предыдущие месяцы, начиная с января 2011 года, Вы можете получить, выбрав интересующий диапазон дат из раскрывающегося списка и нажав кнопку "Ввод!".


*Определитесь, кто Вы:
робот инопланетянин человек

Внимание! Время в таблицах - всемирное. Для получения местного времени необходимо прибавить поправку, которая равна 9.5 ч.

Смотрите также архив погоды в соседних городах и на ближайших метеорологических станциях:

Погода в Месторождении Ballera (Квинсленд, Австралия) (176 км)
Погода в Тибообере (Новый Южный Уэльс, Австралия) (235 км)
Погода в Бердсвилле (Квинсленд, Австралия) (259 км)
Погода в Марри (Южная Австралия, Австралия) (271 км)
Погода в Ли-Крике (Южная Австралия, Австралия) (327 км)
Погода в Таргоминде (Квинсленд, Австралия) (355 км)
Погода в Фоулерс Гэп (Новый Южный Уэльс, Австралия) (362 км)
Погода в Уафт Клифс (Новый Южный Уэльс, Австралия) (413 км)
Погода в Олимпик Дэм (Южная Австралия, Австралия) (417 км)
Погода в Брокен-Хилл аэропорту (Новый Южный Уэльс, Австралия) (450 км)

Пояснения к столбцам:

Ветер - указаны скорость ветра в м/с - средняя за 10 мин, порывы в срок и между сроками (в фигурных скобках) и направление, откуда дует ветер: С - северный, СВ - северо-восточный, В - восточный, ЮВ - юго-восточный, Ю - южный, ЮЗ - юго-западный, З - западный, СЗ - северо-западный.
Видимость - горизонтальная дальность видимости в метрах или километрах. При видимости от 1 до 10 км при отсутствии осадков обычно наблюдается дымка, при ухудшении видимости до 1 км и менее - туман. В сухую погоду видимость может ухудшаться дымом, пылью или мглою.
Явления - указаны атмосферные явления, наблюдавшиеся в срок или в последний час перед сроком; фигурными скобками обозначены явления, наблюдавшиеся между сроками (за 1-3 часа до срока); квадратными скобками обозначены град или гололедные отложения с указанием их диаметра в мм.
Облачность - указаны через наклонную черту общая и нижняя облачность в баллах и высота нижней границы облаков в метрах; квадратными скобками обозначены формы облаков: Ci - перистые, Cs - перисто-слоистые, Cc - перисто-кучевые, Ac - высококучевые, As - высокослоистые, Sc - слоисто-кучевые, Ns - слоисто-дождевые, Cu - кучевые, Cb - кучево-дождевые. Подробнее классификацию облаков см. в Атласе облаков (PDF).
T - Температура воздуха - температура, измеренная на высоте 2 м над землей.
Td - Температура точки росы - температура, при понижении до которой содержащийся в воздухе водяной пар достигнет насыщения.
f - Относительная влажность воздуха - влажноcть воздуха, измеренная на высоте 2 м над землей.
Te - Эффективная температура - температура, которую ощущает одетый по сезону человек в тени. Характеристика душности погоды. При расчете учитывается влияние влажности воздуха и скорости ветра на теплоощущения человека.
Tes - Эффективная температура на солнце - температура, которую ощущает человек, с поправкой на солнечный нагрев. Характеристика знойности погоды. Зависит от высоты солнца над горизонтом, облачности и скорости ветра. Ночью, в пасмурную погоду, а также при ветре 12 м/с и более поправка равна нулю.
P - Атмосферное давление - приведенное к уровню моря атмосферное давление.
Po - Атмосферное давление - измеренное на уровне метеостанции атмосферное давление.
Tmin - Минимальная температура - минимум температуры воздуха на высоте 2 м над землей.
Tmax - Максимальная температура - максимум температуры воздуха на высоте 2 м над землей.
R - Количество осадков - Количество выпавших осадков за период времени, мм. При наведении курсора мыши на число - период времени, за который выпало указанное количество осадков.
R24 - Количество осадков - Количество выпавших осадков за 24 часа, мм.
S - Снежный покров - Высота снежного покрова, см. При наведении курсора мыши на число - состояние снежного покрова и степень покрытия местности в баллах.